Dewpoint
29 26 29 35 34 23 20 19 18 18 20 18 19 19 18 18 17 19 24 25 31 41 48 46 49 52 53 58 61 61 62 61 62 60 60 62 61 63 63 63 63 63 63 62
27 23 26 27 24 22 19 18 18 21 22 19 18 17 18 17 17 18 17 17 19 25 28 33 37 48 52 55 60 61 62 62 61 62 61 60 60 63 63 63 63 63 63 63
25 25 26 25 24 22 18 19 18 19 20 19 17 16 16 18 19 18 19 18 17 22 26 28 29 32 41 49 56 59 61 61 61 61 61 61 62 62 62 62 62 62 62 62
28 27 26 26 25 23 20 18 19 20 16 14 15 13 11 16 17 19 18 18 19 21 25 27 28 33 34 34 37 42 57 60 61 61 61 61 60 59 60 61 62 62 62 61
25 24 28 27 27 24 21 20 19 22 15 12 12 8 9 13 14 17 19 19 20 21 24 28 32 37 41 44 44 40 37 57 61 61 61 61 59 58 59 60 59 55 53 54
23 24 28 29 26 26 22 19 17 18 14 11 12 11 10 9 11 13 16 19 21 24 27 32 38 42 44 45 46 39 35 38 58 61 61 61 59 58 59 58 56 51 49 48
20 20 23 22 20 23 19 17 16 13 14 12 13 9 11 9 11 14 14 18 21 26 33 36 40 42 43 46 46 41 42 44 54 60 60 59 58 58 58 57 51 47 45 43
19 17 21 22 21 20 19 16 17 11 13 10 15 11 11 14 15 14 16 19 25 28 35 38 40 41 42 45 46 46 48 48 53 59 57 55 57 55 53 50 46 43 41 40
18 17 24 22 21 20 18 14 16 17 16 15 11 11 12 15 15 21 25 27 29 32 36 38 40 41 42 44 45 46 46 45 49 49 48 48 47 47 43 40 39 38 37 36
18 16 25 24 22 21 18 17 15 18 12 9 10 10 7 9 12 14 25 28 30 34 37 39 40 40 40 42 42 42 42 42 41 42 43 41 40 39 38 37 36 35 35 34
21 20 23 23 20 18 14 15 16 16 19 13 9 6 14 7 13 10 18 29 33 35 37 38 39 39 39 39 39 39 39 38 38 38 38 37 36 36 35 34 34 33 33 32
24 24 22 19 24 25 21 15 14 14 14 15 16 11 10 15 16 17 25 31 34 35 37 38 37 37 37 37 37 37 36 36 36 36 35 34 33 33 32 32 32 32 31 31
27 24 20 20 19 24 21 19 16 18 22 18 14 9 10 20 20 21 26 32 34 36 37 37 36 36 36 36 36 35 35 34 34 33 33 32 31 31 31 31 31 30 30 30
31 26 20 14 14 21 21 19 18 15 18 15 15 10 9 9 17 23 30 33 35 36 36 36 35 35 35 35 35 34 34 33 32 31 30 30 30 29 30 30 30 30 29 28
25 23 22 18 18 18 19 21 18 15 14 13 11 11 11 9 12 20 29 33 36 36 36 36 35 35 35 34 34 33 33 31 30 30 29 29 29 29 29 29 29 29 28 28
26 21 21 21 21 21 19 20 20 18 17 15 14 12 12 13 20 26 29 33 35 35 36 36 35 35 34 34 33 33 32 31 30 29 29 29 29 28 28 28 28 28 27 27
26 24 20 15 23 22 21 21 20 19 18 16 14 14 15 15 18 21 28 32 33 35 36 36 35 35 34 34 33 32 31 31 29 29 29 28 28 27 28 28 27 27 26 26
29 26 26 20 24 16 19 21 20 19 19 19 17 16 19 18 19 22 29 30 32 33 35 36 36 35 35 34 33 32 31 30 29 29 28 27 27 27 27 27 26 26 26 25
30 27 23 23 16 20 21 24 24 21 19 22 20 21 19 19 21 20 26 30 29 33 35 36 37 36 35 33 33 31 30 29 28 27 27 27 27 26 26 26 25 25 26 25
28 26 24 10 19 16 19 22 24 23 22 26 25 23 22 21 18 19 21 28 30 33 35 37 37 37 35 33 31 30 29 28 27 27 27 27 27 27 26 25 25 25 24 25
25 23 22 10 14 16 22 23 24 21 20 23 26 26 25 22 22 26 28 25 31 33 35 37 37 36 34 32 30 30 29 28 27 27 27 27 26 26 25 25 24 24 24 24
25 24 22 15 11 17 24 23 21 22 20 25 28 30 27 26 27 28 31 31 31 32 35 37 36 34 32 31 31 30 28 28 27 27 26 26 25 25 24 23 23 23 23 22
25 26 25 24 23 25 27 25 27 25 20 23 24 26 29 29 29 31 32 32 33 33 33 33 34 32 30 31 31 30 29 27 27 26 25 24 24 24 23 22 21 20 21 21
29 31 28 27 26 27 25 25 26 26 22 25 27 26 28 28 30 31 31 31 31 28 28 27 28 28 28 30 30 31 28 28 27 26 24 22 22 22 22 22 21 21 19 19
30 33 30 28 28 27 26 25 25 23 26 26 25 28 28 29 29 31 30 28 27 26 25 26 28 28 28 29 28 28 28 28 27 25 22 22 22 21 20 20 20 19 19 19
32 33 31 27 31 31 30 28 28 27 27 27 24 24 27 28 29 29 28 27 26 24 24 25 25 26 26 26 26 26 27 27 24 22 21 20 20 19 17 17 16 19 20 22
Lifted_Index
3 3 3 4 5 5 4 4 4 5 5 5 5 5 6 7 7 8 7 6 5 5 4 3 2 1 1 1 1 0 -0 -0 -1 -0 -0 0 1 1 1 1 1 2 2 2
3 4 5 6 6 5 5 5 4 4 5 5 5 5 6 6 7 7 7 7 7 6 5 4 3 2 2 1 1 1 0 -0 -0 -0 -0 0 1 1 1 1 2 2 2 2
4 5 6 7 7 6 5 5 5 4 4 4 5 5 5 6 7 7 7 8 8 8 7 6 5 4 3 2 2 1 0 -0 -0 0 0 0 1 2 2 2 2 2 2 2
5 6 6 7 6 6 6 6 5 4 4 4 4 4 5 6 6 7 7 7 8 8 8 8 7 5 4 3 2 1 1 0 0 0 0 1 1 2 2 2 2 2 2 2
6 6 6 5 6 7 7 6 5 4 3 4 4 5 5 6 6 6 7 7 7 7 8 9 8 7 5 4 3 2 1 1 1 0 0 1 2 2 3 3 3 2 3 3
7 7 6 5 6 7 7 6 5 4 3 3 4 5 5 6 6 6 6 6 7 7 8 9 9 9 8 6 5 4 4 3 2 1 0 1 1 2 3 3 3 3 4 4
7 7 7 6 6 6 6 6 4 3 2 3 4 5 6 7 7 6 6 6 6 7 8 8 9 9 9 9 8 8 8 7 4 2 1 0 1 2 3 3 4 4 5 5
5 6 7 7 6 6 6 6 5 3 2 3 4 5 6 7 7 6 6 6 6 6 7 8 9 9 9 9 10 10 10 9 7 3 1 0 1 2 3 4 4 5 5 6
5 5 6 7 6 5 5 5 5 4 3 3 4 5 6 7 7 6 6 5 5 5 6 8 9 9 9 9 9 10 10 9 7 4 2 1 1 2 3 4 5 6 6 6
5 5 6 6 5 5 5 5 4 4 3 2 3 4 5 6 6 6 5 5 5 5 6 7 8 9 9 9 9 9 9 8 6 4 2 1 2 3 4 5 6 6 7 8
5 5 5 5 4 4 4 4 3 3 3 2 3 4 5 5 5 5 5 5 5 5 6 7 8 9 10 10 9 8 8 7 5 3 2 2 2 3 4 6 7 8 9 10
5 5 4 4 4 4 4 3 3 3 3 3 3 4 5 5 4 4 5 5 5 6 7 8 8 9 9 9 9 8 8 6 5 4 3 3 3 4 6 7 8 10 12 13
4 4 3 3 3 3 3 3 3 3 2 3 3 4 5 4 4 4 4 5 5 6 7 8 8 9 9 9 9 8 8 7 6 5 5 5 5 7 8 9 10 12 14 15
3 3 3 3 3 3 3 3 3 2 2 3 3 4 4 4 3 3 4 4 5 6 7 8 8 9 9 9 9 8 8 7 7 6 6 7 8 9 10 11 12 14 15 16
3 3 3 3 3 3 2 2 2 2 2 3 4 4 4 4 4 4 4 5 5 5 6 7 8 8 8 8 8 8 8 8 7 7 8 8 9 10 11 12 14 15 16 16
3 3 3 3 3 3 2 2 3 3 3 4 4 4 4 4 4 4 5 5 5 5 6 6 7 7 8 8 8 8 8 8 8 8 8 8 9 10 12 14 15 15 15 15
3 3 3 3 2 2 3 3 3 3 4 5 5 5 4 4 4 5 5 5 5 5 5 6 6 7 7 7 7 7 7 7 7 7 8 8 10 11 13 14 15 15 15 15
2 2 2 2 2 2 3 4 4 3 4 4 5 5 4 4 4 4 4 4 4 4 5 5 5 5 6 6 6 6 6 6 6 7 8 9 10 12 14 15 15 14 14 14
2 2 2 2 2 3 3 4 3 3 3 4 5 5 4 4 4 4 4 4 4 4 4 4 4 4 5 5 5 5 5 5 6 6 8 10 11 13 14 14 14 13 13 13
2 2 2 2 2 3 4 4 3 3 3 4 4 4 4 4 4 4 4 4 4 4 4 4 4 4 4 5 5 4 5 5 6 7 8 11 12 13 14 14 13 13 13 14
2 2 2 2 2 3 4 4 4 3 4 4 4 4 3 3 4 4 4 4 4 5 5 4 4 5 5 5 5 5 5 5 6 7 9 11 13 14 14 13 13 13 14 15
2 2 2 2 3 3 4 4 4 4 4 4 4 4 3 3 3 4 4 3 4 4 5 5 5 5 5 5 5 5 5 5 6 7 9 11 13 14 13 13 13 14 14 14
2 2 2 2 3 3 4 4 4 3 4 4 4 4 4 3 3 4 4 3 4 4 4 5 5 5 5 5 5 5 5 5 6 8 10 12 13 14 14 14 14 14 14 13
2 2 2 2 3 3 3 3 3 3 3 3 4 4 4 4 4 4 5 5 5 5 5 4 4 4 4 5 5 5 5 6 6 8 10 12 13 13 13 14 14 14 13 13
2 2 2 2 2 2 3 3 3 3 3 3 3 4 4 5 5 6 6 7 7 7 6 5 4 4 4 4 5 5 6 6 7 8 10 12 13 13 13 13 14 13 14 14
2 2 2 2 2 2 2 3 3 3 3 3 3 4 4 5 6 7 7 8 8 8 7 5 4 4 4 4 5 5 6 6 7 8 10 12 13 13 13 13 13 13 14 15